Location: Croissy-Beaubourg
(48.8283°N, 2.6696°E)
Time: 00:47:10
(UTC+00:00)

USA 215 - Pass Details

Date: 31 May 2022
Orbit: 1099 x 1108 km, 123.0° (Epoch: 10 June)

Event Time Altitude Azimuth Distance (km) Brightness Sun altitude
Rises 01:53:24 0° 63° (ENE) 3,922 7.2 -13.9°
Reaches altitude 10° 01:55:57 10° 58° (ENE) 2,965 6.5 -13.6°
Maximum altitude 02:02:11 50° 346° (NNW) 1,384 4.1 -13.1°
Drops below altitude 10° 02:08:27 10° 274° (W) 2,966 5.2 -12.6°
Sets 02:11:00 0° 269° (W) 3,925 5.8 -12.3°
